Location: Barrialito
(10.1025°N, 66.8154°W)
Time: 16:17:47
(UTC+00:00)

GPS 2-12 Rocket1 - Pass Details

Date: 10 September 2024
Orbit: 570 x 629 km, 20.0° (Epoch: 15 October)

Event Time Altitude Azimuth Distance (km) Brightness Sun altitude
Rises 23:00:19 0° 231° (SW) 2,752 7.1 -8.1°
Reaches altitude 10° 23:02:51 10° 219° (SW) 1,854 6.0 -8.8°
Maximum altitude 23:06:36 29° 158° (SSE) 1,047 4.0 -9.7°
Enters shadow 23:09:37 14° 104° (ESE) 1,616 4.5 -10.4°
